PGT70UG LTFJ-LTFD

Flight info

Callsign PGT70UG
Flight time 0h 30m
Altitude 16000
Route IVGUS UY227 RAUMA G80 KONEN
Aircraft A21N/M-SDFGIJ1LORVWY/LB1

Departure

Time 2026-05-09 16:43
Airport Istanbul Sabiha Gökçen International Airport (LTFJ)

Arrival

Time 2026-05-09 17:13
Airport Balıkesir Koca Seyit Airport (LTFD)
Time Latitude Longitude Altitude Speed Heading
2026-05-09 16:25 40.89814 29.32350 311 ft 0 kts 64°
2026-05-09 16:32 40.89807 29.32331 312 ft 4 kts 64°
2026-05-09 16:32 40.89796 29.32302 310 ft 4 kts 64°
2026-05-09 16:33 40.89786 29.32273 309 ft 4 kts 64°
2026-05-09 16:33 40.89776 29.32245 309 ft 2 kts 64°
2026-05-09 16:33 40.89775 29.32243 309 ft 1 kts 64°
2026-05-09 16:35 40.89776 29.32248 309 ft 2 kts 88°
2026-05-09 16:35 40.89762 29.32259 309 ft 3 kts 168°
2026-05-09 16:36 40.89742 29.32264 312 ft 3 kts 168°
2026-05-09 16:36 40.89638 29.32318 310 ft 8 kts 156°
2026-05-09 16:37 40.89583 29.32350 310 ft 10 kts 156°
2026-05-09 16:37 40.89514 29.32375 308 ft 11 kts 142°
2026-05-09 16:37 40.89511 29.32476 309 ft 13 kts 64°
2026-05-09 16:37 40.89552 29.32586 307 ft 14 kts 64°
2026-05-09 16:38 40.89596 29.32708 305 ft 15 kts 64°
2026-05-09 16:38 40.89643 29.32838 304 ft 16 kts 64°
2026-05-09 16:38 40.89693 29.32973 298 ft 17 kts 64°
2026-05-09 16:38 40.89746 29.33116 296 ft 18 kts 64°
2026-05-09 16:39 40.89801 29.33267 296 ft 19 kts 64°
2026-05-09 16:39 40.89862 29.33432 301 ft 21 kts 64°
2026-05-09 16:39 40.89929 29.33614 311 ft 23 kts 64°
2026-05-09 16:39 40.89983 29.33760 317 ft 11 kts 64°
2026-05-09 16:40 40.90016 29.33849 322 ft 9 kts 67°
2026-05-09 16:40 40.90009 29.33907 323 ft 2 kts 133°
2026-05-09 16:42 40.89809 29.33855 313 ft 40 kts 246°
2026-05-09 16:42 40.89577 29.33219 297 ft 109 kts 244°
2026-05-09 16:42 40.89165 29.32103 308 ft 159 kts 244°
2026-05-09 16:42 40.88658 29.30737 748 ft 163 kts 243°
2026-05-09 16:43 40.88119 29.29417 1294 ft 169 kts 230°
2026-05-09 16:43 40.87083 29.28598 1655 ft 184 kts 197°
2026-05-09 16:43 40.85843 29.27962 2104 ft 200 kts 212°
2026-05-09 16:43 40.84650 29.26889 2735 ft 215 kts 216°
2026-05-09 16:44 40.83353 29.25711 3240 ft 236 kts 216°
2026-05-09 16:44 40.81964 29.24464 4014 ft 244 kts 216°
2026-05-09 16:44 40.80558 29.23210 4970 ft 244 kts 216°
2026-05-09 16:44 40.79145 29.21950 5882 ft 246 kts 216°
2026-05-09 16:45 40.77720 29.20683 6741 ft 248 kts 216°
2026-05-09 16:45 40.76352 29.19280 7537 ft 251 kts 227°
2026-05-09 16:45 40.75258 29.17431 8169 ft 261 kts 243°
2026-05-09 16:45 40.74759 29.15119 8923 ft 267 kts 266°
2026-05-09 16:46 40.74934 29.12659 9737 ft 273 kts 279°
2026-05-09 16:46 40.75311 29.10160 10340 ft 286 kts 279°
2026-05-09 16:46 40.75715 29.07481 10653 ft 309 kts 279°
2026-05-09 16:46 40.76133 29.04606 11009 ft 327 kts 279°
2026-05-09 16:47 40.76558 29.01625 11675 ft 334 kts 279°
2026-05-09 16:47 40.76979 28.98601 12475 ft 337 kts 279°
2026-05-09 16:47 40.77400 28.95551 13289 ft 339 kts 279°
2026-05-09 16:47 40.77818 28.92474 14060 ft 342 kts 278°
2026-05-09 16:48 40.78240 28.89370 14744 ft 345 kts 278°
2026-05-09 16:48 40.78662 28.86237 15408 ft 349 kts 278°
2026-05-09 16:48 40.78995 28.83045 16052 ft 353 kts 270°
2026-05-09 16:48 40.78726 28.79825 16683 ft 356 kts 258°
2026-05-09 16:49 40.78164 28.76626 17306 ft 360 kts 257°
2026-05-09 16:49 40.77572 28.73397 17927 ft 364 kts 257°
2026-05-09 16:49 40.76972 28.70131 18499 ft 368 kts 255°
2026-05-09 16:50 40.74352 28.64277 19543 ft 378 kts 232°
2026-05-09 16:50 40.72675 28.61591 19954 ft 381 kts 232°
2026-05-09 16:50 40.70990 28.58885 20232 ft 383 kts 232°
2026-05-09 16:50 40.69315 28.56157 20499 ft 383 kts 233°
2026-05-09 16:51 40.67646 28.53399 20758 ft 385 kts 233°
2026-05-09 16:51 40.65979 28.50639 20998 ft 386 kts 233°
2026-05-09 16:51 40.64334 28.47921 21067 ft 375 kts 233°
2026-05-09 16:51 40.62709 28.45242 21062 ft 374 kts 233°
2026-05-09 16:52 40.61081 28.42564 21048 ft 374 kts 233°
2026-05-09 16:52 40.59457 28.39893 21046 ft 374 kts 233°
2026-05-09 16:52 40.57850 28.37252 20855 ft 365 kts 233°
2026-05-09 16:52 40.56274 28.34675 20614 ft 359 kts 233°
2026-05-09 16:53 40.54714 28.32123 20373 ft 357 kts 233°
2026-05-09 16:53 40.53162 28.29582 20133 ft 356 kts 233°
2026-05-09 16:53 40.52139 28.27903 19967 ft 355 kts 233°
2026-05-09 16:53 40.50095 28.24563 19646 ft 353 kts 233°
2026-05-09 16:54 40.48559 28.22055 19414 ft 352 kts 233°
2026-05-09 16:54 40.47023 28.19566 19183 ft 350 kts 233°
2026-05-09 16:54 40.45495 28.17079 18948 ft 349 kts 233°
2026-05-09 16:54 40.43977 28.14607 18704 ft 347 kts 233°
2026-05-09 16:55 40.42957 28.12936 18551 ft 347 kts 233°
2026-05-09 16:55 40.41443 28.10471 18313 ft 346 kts 233°
2026-05-09 16:55 40.39937 28.08019 18048 ft 344 kts 233°
2026-05-09 16:55 40.38439 28.05578 17793 ft 343 kts 233°
2026-05-09 16:56 40.36948 28.03150 17528 ft 341 kts 233°
2026-05-09 16:56 40.35480 28.00768 17271 ft 339 kts 233°
2026-05-09 16:56 40.34001 27.98373 17014 ft 338 kts 233°
2026-05-09 16:56 40.32523 27.95991 16757 ft 336 kts 233°
2026-05-09 16:57 40.31054 27.93615 16499 ft 334 kts 233°
2026-05-09 16:57 40.29597 27.91250 16237 ft 332 kts 233°
2026-05-09 16:57 40.28149 27.88906 15988 ft 330 kts 233°
2026-05-09 16:57 40.26707 27.86572 15740 ft 328 kts 233°
2026-05-09 16:58 40.25276 27.84261 15495 ft 327 kts 233°
2026-05-09 16:58 40.23846 27.81954 15257 ft 325 kts 233°
2026-05-09 16:58 40.22423 27.79661 15007 ft 323 kts 233°
2026-05-09 16:58 40.21010 27.77385 14766 ft 322 kts 233°
2026-05-09 16:59 40.19603 27.75116 14526 ft 320 kts 233°
2026-05-09 16:59 40.18198 27.72862 14290 ft 319 kts 233°
2026-05-09 16:59 40.16802 27.70622 14052 ft 317 kts 233°
2026-05-09 16:59 40.15411 27.68393 13791 ft 316 kts 233°
2026-05-09 17:00 40.14019 27.66172 13539 ft 315 kts 233°
2026-05-09 17:00 40.12648 27.63987 13280 ft 313 kts 233°
2026-05-09 17:00 40.11266 27.61778 13019 ft 312 kts 233°
2026-05-09 17:00 40.09892 27.59584 12761 ft 311 kts 233°
2026-05-09 17:01 40.08521 27.57396 12504 ft 310 kts 233°
2026-05-09 17:01 40.07173 27.55253 12189 ft 308 kts 233°
2026-05-09 17:01 40.05815 27.53086 11855 ft 306 kts 233°
2026-05-09 17:01 40.04474 27.50937 11505 ft 303 kts 233°
2026-05-09 17:02 40.03143 27.48810 11161 ft 300 kts 233°
2026-05-09 17:02 40.01825 27.46707 10851 ft 296 kts 233°
2026-05-09 17:02 40.00555 27.44688 10666 ft 286 kts 233°
2026-05-09 17:02 39.99320 27.42724 10518 ft 273 kts 233°
2026-05-09 17:03 39.98134 27.40839 10346 ft 266 kts 233°
2026-05-09 17:04 39.89365 27.29133 8211 ft 263 kts 195°
2026-05-09 17:05 39.87524 27.28770 7594 ft 272 kts 190°
2026-05-09 17:05 39.85625 27.28471 7116 ft 275 kts 190°
2026-05-09 17:05 39.83727 27.28159 6770 ft 273 kts 190°
2026-05-09 17:05 39.81853 27.27835 6453 ft 270 kts 189°
2026-05-09 17:06 39.79973 27.27744 6133 ft 271 kts 181°
2026-05-09 17:06 39.78080 27.27854 5822 ft 272 kts 180°
2026-05-09 17:06 39.76184 27.27974 5509 ft 271 kts 180°
2026-05-09 17:06 39.74331 27.28088 5286 ft 261 kts 180°
2026-05-09 17:07 39.72555 27.28185 5131 ft 249 kts 183°
2026-05-09 17:07 39.71435 27.28065 5007 ft 238 kts 197°
2026-05-09 17:07 39.69631 27.26786 4750 ft 214 kts 227°
2026-05-09 17:07 39.68752 27.25321 4574 ft 199 kts 237°
2026-05-09 17:08 39.68018 27.23896 4503 ft 182 kts 237°
2026-05-09 17:08 39.66596 27.21256 4044 ft 180 kts 236°
2026-05-09 17:08 39.65870 27.19935 3908 ft 179 kts 236°
2026-05-09 17:09 39.65137 27.18628 3694 ft 180 kts 235°
2026-05-09 17:09 39.64399 27.17309 3427 ft 180 kts 235°
2026-05-09 17:09 39.63691 27.16047 3132 ft 170 kts 235°
2026-05-09 17:09 39.63025 27.14841 2895 ft 156 kts 235°
2026-05-09 17:10 39.62423 27.13776 2634 ft 139 kts 235°
2026-05-09 17:10 39.61853 27.12764 2403 ft 139 kts 233°
2026-05-09 17:10 39.61277 27.11739 2190 ft 143 kts 234°
2026-05-09 17:10 39.60686 27.10694 1955 ft 144 kts 234°
2026-05-09 17:11 39.60087 27.09659 1735 ft 143 kts 234°
2026-05-09 17:11 39.59490 27.08616 1507 ft 144 kts 234°
2026-05-09 17:11 39.58907 27.07568 1335 ft 143 kts 235°
2026-05-09 17:11 39.58348 27.06508 1114 ft 144 kts 235°
2026-05-09 17:12 39.57757 27.05454 870 ft 145 kts 233°
2026-05-09 17:12 39.57161 27.04403 645 ft 145 kts 234°
2026-05-09 17:12 39.56566 27.03350 399 ft 144 kts 233°
2026-05-09 17:12 39.55967 27.02303 159 ft 144 kts 233°
2026-05-09 17:13 39.55393 27.01287 61 ft 130 kts 233°
2026-05-09 17:13 39.54949 27.00510 52 ft 82 kts 233°
2026-05-09 17:13 39.54743 27.00144 53 ft 26 kts 234°
2026-05-09 17:13 39.54653 26.99994 50 ft 10 kts 225°
2026-05-09 17:14 39.54625 26.99967 50 ft 5 kts 217°
2026-05-09 17:14 39.54635 26.99948 50 ft 5 kts 34°
2026-05-09 17:14 39.54659 26.99992 50 ft 7 kts 55°
2026-05-09 17:14 39.54695 27.00059 50 ft 10 kts 55°
2026-05-09 17:15 39.54745 27.00151 53 ft 15 kts 54°
2026-05-09 17:15 39.54814 27.00274 53 ft 18 kts 54°
2026-05-09 17:15 39.54889 27.00406 53 ft 19 kts 54°
2026-05-09 17:15 39.54970 27.00546 52 ft 20 kts 53°
2026-05-09 17:16 39.55053 27.00695 52 ft 21 kts 54°
2026-05-09 17:17 39.54944 27.01077 53 ft 1 kts 176°
2026-05-09 17:18 39.54937 27.01085 56 ft 2 kts 139°
2026-05-09 17:18 39.54930 27.01093 56 ft 0 kts 131°
2026-05-09 17:18 39.54923 27.01100 56 ft 2 kts 145°
2026-05-09 17:18 39.54912 27.01111 56 ft 1 kts 143°
2026-05-09 17:19 39.54907 27.01115 56 ft 0 kts 144°
2026-05-09 17:19 39.54906 27.01117 56 ft 0 kts 145°